Weather past 2 weeks in Jamestown, Saint Helena

Now
62 °F

Cool.


Feels Like: 62 °F
Forecast: 69 / 70 °F
Wind: 16 mph from Southeast

Location: Saint Helena Island

Current Time: Jul 5, 2015 at 3:42:54 AM

Latest Report: Jul 5, 2015 at 2:00 AM


Visibility: N/A

Pressure: 30.10 "Hg

Humidity: 92%

Dew point: 60 °F

Location of JamestownLocation

Historic Weather in Jamestown — Graph

°F

Jamestown temperature yesterday

Maximum temperature yesterday: 64 °F (at 1:00 PM)
Minimum temperature yesterday: 60 °F (at 4:00 AM)
Average temperature yesterday: 62 °F

Past Weeks' High & Low Weather Summary

 TemperatureHumidityPressure
High70 °F (Jun 23, 1:00 PM)100% (Jul 3, 7:00 PM)30.34 "Hg (Jul 3, 7:00 PM)
Low57 °F (Jun 28, 5:00 AM)50% (Jun 23, 12:00 PM)30.09 "Hg (Jul 4, 4:00 PM)
Average62 °F87%30.18 "Hg
* Reported Jun 20 2:00 AM — Jul 5 2:00 AM, Jamestown, Weather by CustomWeather, © 2015

Note: Actual official high and low records may vary slightly from our data, if they occured in-between our weather recording intervals... More about our weather records

Advertising

Jamestown weather history for previous 24 hours

 ConditionsComfort  
Time TempWeatherWind HumidityBarometerVisibility
2:00 AM
Sun, Jul 5
62 °FCool.16 mph92%30.10 "HgN/A
1:00 AM62 °FCool.14 mph92%30.12 "HgN/A
12:00 AM62 °FCool.14 mph94%30.13 "HgN/A
11:00 PM
Sat, Jul 4
62 °FCool.13 mph97%30.13 "HgN/A
10:00 PM62 °FCool.14 mph95%30.13 "HgN/A
9:00 PM62 °FCool.14 mph96%30.14 "HgN/A
8:00 PM61 °FCool.12 mph97%30.14 "HgN/A
7:00 PM62 °FCool.13 mph92%30.12 "HgN/A
6:00 PM61 °FCool.12 mph96%30.11 "HgN/A
5:00 PM62 °FCool.13 mph95%30.10 "HgN/A
4:00 PM63 °FMild.12 mph91%30.09 "HgN/A
3:00 PM63 °FMild.13 mph89%30.10 "HgN/A
2:00 PM63 °FMild.14 mph88%30.11 "HgN/A
1:00 PM64 °FMild.15 mph87%30.14 "HgN/A
12:00 PM63 °FLow clouds.13 mph89%30.17 "Hg2 mi
11:00 AM63 °FLow clouds.13 mph89%30.17 "Hg2 mi
10:00 AM63 °FMild.15 mph90%30.16 "HgN/A
9:00 AM62 °FCool.14 mph88%30.15 "HgN/A
8:00 AM60 °FCool.13 mph94%30.15 "HgN/A
7:00 AM60 °FCool.14 mph96%30.14 "HgN/A
5:00 AM61 °FCool.16 mph87%30.10 "HgN/A
4:00 AM60 °FCool.16 mph98%30.11 "HgN/A
3:00 AM60 °FCool.16 mph98%30.12 "HgN/A
Weather by CustomWeather, © 2015

See weather overviewHow to use our weather pages